Time,TemperatureF,DewpointF,PressureIn,WindDirection,WindDirectionDegrees,WindSpeedMPH,WindSpeedGustMPH,Humidity,HourlyPrecipIn,Conditions,Clouds,dailyrainin,SoftwareType,DateUTC
2013-03-01 00:04:00,21.8,19.0,29.89,NW,324,2.0,-999.0,89,-99.99,,,0.00,weatherlink.com 1.10,2013-03-01 05:04:00,
2013-03-01 00:19:00,21.6,19.0,29.90,NW,304,2.0,-999.0,90,-99.99,,,0.00,weatherlink.com 1.10,2013-03-01 05:19:00,
2013-03-01 00:34:00,21.4,19.0,29.90,SW,234,2.0,-999.0,91,-99.99,,,0.00,weatherlink.com 1.10,2013-03-01 05:34:00,
2013-03-01 00:49:00,21.3,19.0,29.90,South,188,2.0,-999.0,92,-99.99,,,0.00,weatherlink.com 1.10,2013-03-01 05:49:00,
2013-03-01 01:04:00,21.3,19.0,29.89,West,273,5.0,-999.0,92,-99.99,,,0.00,weatherlink.com 1.10,2013-03-01 06:04:00,
2013-03-01 01:19:00,21.3,19.0,29.89,North,350,2.0,-999.0,92,-99.99,,,0.00,weatherlink.com 1.10,2013-03-01 06:19:00,
2013-03-01 01:34:00,21.1,19.0,29.88,SW,232,0.0,-999.0,92,-99.99,,,0.00,weatherlink.com 1.10,2013-03-01 06:34:00,
2013-03-01 01:49:00,21.3,19.0,29.88,East,82,2.0,-999.0,92,-99.99,,,0.00,weatherlink.com 1.10,2013-03-01 06:49:00,
2013-03-01 02:04:00,21.4,19.0,29.87,WNW,286,5.0,-999.0,91,-99.99,,,0.00,weatherlink.com 1.10,2013-03-01 07:04:00,
2013-03-01 02:19:00,21.3,19.0,29.88,ESE,104,0.0,-999.0,91,-99.99,,,0.00,weatherlink.com 1.10,2013-03-01 07:19:00,
2013-03-01 02:34:00,21.3,19.0,29.87,NE,51,2.0,-999.0,92,-99.99,,,0.00,weatherlink.com 1.10,2013-03-01 07:34:00,
2013-03-01 02:49:00,21.1,19.0,29.87,NNW,344,1.0,-999.0,92,-99.99,,,0.00,weatherlink.com 1.10,2013-03-01 07:49:00,
2013-03-01 03:04:00,21.0,19.0,29.87,NW,304,0.0,-999.0,93,-99.99,,,0.00,weatherlink.com 1.10,2013-03-01 08:04:00,
2013-03-01 03:19:00,21.0,20.0,29.86,WNW,297,0.0,-999.0,94,-99.99,,,0.00,weatherlink.com 1.10,2013-03-01 08:19:00,
2013-03-01 03:34:00,20.8,19.0,29.85,WNW,300,0.0,-999.0,94,-99.99,,,0.00,weatherlink.com 1.10,2013-03-01 08:34:00,
2013-03-01 03:49:00,20.8,19.0,29.85,WSW,242,0.0,-999.0,94,-99.99,,,0.00,weatherlink.com 1.10,2013-03-01 08:49:00,
2013-03-01 04:04:00,20.8,19.0,29.86,North,11,1.0,-999.0,94,-99.99,,,0.00,weatherlink.com 1.10,2013-03-01 09:04:00,
2013-03-01 04:19:00,20.8,20.0,29.87,WNW,296,0.0,-999.0,95,-99.99,,,0.00,weatherlink.com 1.10,2013-03-01 09:19:00,
2013-03-01 04:34:00,21.0,20.0,29.88,North,5,0.0,-999.0,94,-99.99,,,0.00,weatherlink.com 1.10,2013-03-01 09:34:00,
2013-03-01 04:49:00,21.1,20.0,29.88,ENE,57,0.0,-999.0,94,-99.99,,,0.00,weatherlink.com 1.10,2013-03-01 09:49:00,
2013-03-01 05:04:00,21.1,20.0,29.88,NNW,338,0.0,-999.0,94,-99.99,,,0.00,weatherlink.com 1.10,2013-03-01 10:04:00,
2013-03-01 05:19:00,21.1,20.0,29.91,SW,218,2.0,-999.0,94,-99.99,,,0.00,weatherlink.com 1.10,2013-03-01 10:19:00,
2013-03-01 05:34:00,21.1,20.0,29.91,NW,323,2.0,-999.0,94,-99.99,,,0.00,weatherlink.com 1.10,2013-03-01 10:34:00,
2013-03-01 05:49:00,21.1,20.0,29.91,NW,319,0.0,-999.0,94,-99.99,,,0.00,weatherlink.com 1.10,2013-03-01 10:49:00,
2013-03-01 06:04:00,21.1,20.0,29.91,NW,319,0.0,-999.0,94,-99.99,,,0.00,weatherlink.com 1.10,2013-03-01 11:04:00,
2013-03-01 06:19:00,21.1,20.0,29.91,ENE,66,1.0,-999.0,95,-99.99,,,0.00,weatherlink.com 1.10,2013-03-01 11:19:00,
2013-03-01 06:34:00,21.1,20.0,29.90,ENE,66,0.0,-999.0,95,-99.99,,,0.00,weatherlink.com 1.10,2013-03-01 11:34:00,
2013-03-01 06:49:00,21.1,20.0,29.90,ENE,66,0.0,-999.0,95,-99.99,,,0.00,weatherlink.com 1.10,2013-03-01 11:49:00,
2013-03-01 07:05:00,21.1,20.0,29.91,ENE,66,2.0,-999.0,95,-99.99,,,0.00,weatherlink.com 1.10,2013-03-01 12:05:00,
2013-03-01 07:19:00,21.3,20.0,29.91,ENE,66,0.0,-999.0,95,-99.99,,,0.00,weatherlink.com 1.10,2013-03-01 12:19:00,
2013-03-01 07:35:00,21.4,20.0,29.91,ENE,60,0.0,-999.0,95,-99.99,,,0.00,weatherlink.com 1.10,2013-03-01 12:35:00,
2013-03-01 07:50:00,21.6,20.0,29.91,ENE,60,1.0,-999.0,95,-99.99,,,0.00,weatherlink.com 1.10,2013-03-01 12:50:00,
2013-03-01 08:05:00,21.9,21.0,29.92,ENE,60,0.0,-999.0,95,-99.99,,,0.00,weatherlink.com 1.10,2013-03-01 13:05:00,
2013-03-01 08:20:00,22.2,21.0,29.91,ENE,60,0.0,-999.0,95,-99.99,,,0.00,weatherlink.com 1.10,2013-03-01 13:20:00,
2013-03-01 08:35:00,22.4,21.0,29.92,ENE,60,0.0,-999.0,94,-99.99,,,0.00,weatherlink.com 1.10,2013-03-01 13:35:00,
2013-03-01 08:50:00,22.7,21.0,29.92,North,360,0.0,-999.0,93,-99.99,,,0.00,weatherlink.com 1.10,2013-03-01 13:50:00,
2013-03-01 09:05:00,22.9,21.0,29.92,NW,306,1.0,-999.0,91,-99.99,,,0.00,weatherlink.com 1.10,2013-03-01 14:05:00,
2013-03-01 09:20:00,23.3,21.0,29.91,NE,38,0.0,-999.0,89,-99.99,,,0.00,weatherlink.com 1.10,2013-03-01 14:20:00,
2013-03-01 09:35:00,23.6,21.0,29.91,ENE,73,1.0,-999.0,88,-99.99,,,0.00,weatherlink.com 1.10,2013-03-01 14:35:00,
2013-03-01 09:50:00,24.4,21.0,29.91,ENE,65,3.0,-999.0,87,-99.99,,,0.00,weatherlink.com 1.10,2013-03-01 14:50:00,
2013-03-01 10:05:00,24.7,21.0,29.91,SW,229,0.0,-999.0,86,-99.99,,,0.00,weatherlink.com 1.10,2013-03-01 15:05:00,
2013-03-01 10:20:00,25.0,21.0,29.91,NE,55,0.0,-999.0,84,-99.99,,,0.00,weatherlink.com 1.10,2013-03-01 15:20:00,
2013-03-01 10:35:00,25.7,21.0,29.90,WSW,244,3.0,-999.0,83,-99.99,,,0.00,weatherlink.com 1.10,2013-03-01 15:35:00,
2013-03-01 10:50:00,25.8,23.0,29.90,ENE,78,1.0,-999.0,88,-99.99,,,0.00,weatherlink.com 1.10,2013-03-01 15:50:00,
2013-03-01 11:05:00,27.0,22.0,29.90,WNW,298,2.0,-999.0,82,-99.99,,,0.00,weatherlink.com 1.10,2013-03-01 16:05:00,
2013-03-01 11:20:00,26.7,22.0,29.91,NE,53,1.0,-999.0,83,-99.99,,,0.00,weatherlink.com 1.10,2013-03-01 16:20:00,
2013-03-01 11:35:00,26.0,23.0,29.91,NE,46,1.0,-999.0,88,-99.99,,,0.00,weatherlink.com 1.10,2013-03-01 16:35:00,
2013-03-01 12:05:00,25.0,23.0,29.92,NE,53,0.0,-999.0,92,-99.99,,,0.00,weatherlink.com 1.10,2013-03-01 17:05:00,
2013-03-01 12:20:00,24.8,23.0,29.91,ENE,57,0.0,-999.0,92,-99.99,,,0.00,weatherlink.com 1.10,2013-03-01 17:20:00,
2013-03-01 12:35:00,25.1,23.0,29.91,ENE,57,0.0,-999.0,92,-99.99,,,0.00,weatherlink.com 1.10,2013-03-01 17:35:00,
2013-03-01 12:50:00,25.3,23.0,29.91,ENE,57,0.0,-999.0,92,-99.99,,,0.00,weatherlink.com 1.10,2013-03-01 17:50:00,
2013-03-01 13:05:00,25.4,23.0,29.91,ENE,57,2.0,-999.0,92,-99.99,,,0.00,weatherlink.com 1.10,2013-03-01 18:05:00,
2013-03-01 13:20:00,25.4,24.0,29.90,ENE,63,2.0,-999.0,93,-99.99,,,0.00,weatherlink.com 1.10,2013-03-01 18:20:00,
2013-03-01 13:35:00,25.0,23.0,29.90,ENE,61,2.0,-999.0,93,-99.99,,,0.00,weatherlink.com 1.10,2013-03-01 18:35:00,
2013-03-01 13:50:00,24.8,23.0,29.89,ENE,63,0.0,-999.0,94,-99.99,,,0.00,weatherlink.com 1.10,2013-03-01 18:50:00,
2013-03-01 14:05:00,25.0,24.0,29.89,SE,128,2.0,-999.0,95,-99.99,,,0.00,weatherlink.com 1.10,2013-03-01 19:05:00,
2013-03-01 14:20:00,25.0,24.0,29.89,SE,138,0.0,-999.0,95,-99.99,,,0.00,weatherlink.com 1.10,2013-03-01 19:20:00,
2013-03-01 14:35:00,25.1,24.0,29.88,East,96,2.0,-999.0,95,-99.99,,,0.00,weatherlink.com 1.10,2013-03-01 19:35:00,
2013-03-01 14:50:00,25.3,24.0,29.88,NE,48,1.0,-999.0,95,-99.99,,,0.00,weatherlink.com 1.10,2013-03-01 19:50:00,
2013-03-01 15:05:00,25.6,24.0,29.88,NE,52,1.0,-999.0,94,-99.99,,,0.00,weatherlink.com 1.10,2013-03-01 20:05:00,
2013-03-01 15:20:00,25.8,24.0,29.88,NE,52,1.0,-999.0,94,-99.99,,,0.00,weatherlink.com 1.10,2013-03-01 20:20:00,
2013-03-01 15:35:00,25.1,24.0,29.88,ENE,69,0.0,-999.0,94,-99.99,,,0.00,weatherlink.com 1.10,2013-03-01 20:35:00,
2013-03-01 15:50:00,25.0,24.0,29.88,East,93,2.0,-999.0,95,-99.99,,,0.00,weatherlink.com 1.10,2013-03-01 20:50:00,
2013-03-01 16:05:00,24.8,24.0,29.89,NNE,30,0.0,-999.0,96,-99.99,,,0.00,weatherlink.com 1.10,2013-03-01 21:05:00,
2013-03-01 16:20:00,25.0,24.0,29.88,NNE,32,0.0,-999.0,96,-99.99,,,0.00,weatherlink.com 1.10,2013-03-01 21:20:00,
2013-03-01 16:35:00,25.0,24.0,29.89,North,355,0.0,-999.0,95,-99.99,,,0.00,weatherlink.com 1.10,2013-03-01 21:35:00,
2013-03-01 16:50:00,25.3,23.0,29.89,NE,56,0.0,-999.0,92,-99.99,,,0.00,weatherlink.com 1.10,2013-03-01 21:50:00,
2013-03-01 17:05:00,25.4,22.0,29.89,NW,310,0.0,-999.0,88,-99.99,,,0.00,weatherlink.com 1.10,2013-03-01 22:05:00,
2013-03-01 17:20:00,25.3,22.0,29.89,WNW,294,0.0,-999.0,88,-99.99,,,0.00,weatherlink.com 1.10,2013-03-01 22:20:00,
2013-03-01 17:35:00,25.1,22.0,29.90,WNW,288,0.0,-999.0,87,-99.99,,,0.00,weatherlink.com 1.10,2013-03-01 22:35:00,
2013-03-01 17:50:00,24.8,21.0,29.90,East,84,2.0,-999.0,85,-99.99,,,0.00,weatherlink.com 1.10,2013-03-01 22:50:00,
2013-03-01 18:05:00,24.8,20.0,29.90,NW,313,0.0,-999.0,83,-99.99,,,0.00,weatherlink.com 1.10,2013-03-01 23:05:00,
2013-03-01 18:20:00,24.8,20.0,29.90,WNW,291,1.0,-999.0,82,-99.99,,,0.00,weatherlink.com 1.10,2013-03-01 23:20:00,
2013-03-01 18:35:00,24.8,21.0,29.90,WNW,291,0.0,-999.0,84,-99.99,,,0.00,weatherlink.com 1.10,2013-03-01 23:35:00,
2013-03-01 18:50:00,24.7,21.0,29.90,NNE,29,1.0,-999.0,87,-99.99,,,0.00,weatherlink.com 1.10,2013-03-01 23:50:00,
2013-03-01 19:05:00,24.5,22.0,29.91,NNE,29,0.0,-999.0,89,-99.99,,,0.00,weatherlink.com 1.10,2013-03-02 00:05:00,
2013-03-01 19:20:00,24.2,22.0,29.91,NNE,29,0.0,-999.0,90,-99.99,,,0.00,weatherlink.com 1.10,2013-03-02 00:20:00,
2013-03-01 19:35:00,24.1,22.0,29.93,NNE,29,2.0,-999.0,90,-99.99,,,0.00,weatherlink.com 1.10,2013-03-02 00:35:00,
2013-03-01 19:50:00,23.8,21.0,29.93,NNE,29,0.0,-999.0,90,-99.99,,,0.00,weatherlink.com 1.10,2013-03-02 00:50:00,
2013-03-01 20:05:00,23.8,21.0,29.92,NNE,29,0.0,-999.0,90,-99.99,,,0.00,weatherlink.com 1.10,2013-03-02 01:05:00,
2013-03-01 20:20:00,23.8,21.0,29.93,NNE,29,0.0,-999.0,90,-99.99,,,0.00,weatherlink.com 1.10,2013-03-02 01:20:00,
2013-03-01 20:35:00,23.8,21.0,29.92,NNE,29,0.0,-999.0,90,-99.99,,,0.00,weatherlink.com 1.10,2013-03-02 01:35:00,
2013-03-01 20:50:00,23.6,21.0,29.92,NNE,29,0.0,-999.0,89,-99.99,,,0.00,weatherlink.com 1.10,2013-03-02 01:50:00,
2013-03-01 21:05:00,23.6,21.0,29.92,NNE,29,0.0,-999.0,89,-99.99,,,0.00,weatherlink.com 1.10,2013-03-02 02:05:00,
2013-03-01 21:20:00,23.6,21.0,29.91,NNE,29,0.0,-999.0,89,-99.99,,,0.00,weatherlink.com 1.10,2013-03-02 02:20:00,
2013-03-01 21:35:00,23.6,21.0,29.91,NNE,29,0.0,-999.0,88,-99.99,,,0.00,weatherlink.com 1.10,2013-03-02 02:35:00,
2013-03-01 21:50:00,23.6,20.0,29.92,NNE,29,0.0,-999.0,87,-99.99,,,0.00,weatherlink.com 1.10,2013-03-02 02:50:00,
2013-03-01 22:05:00,23.6,21.0,29.92,NNE,29,0.0,-999.0,88,-99.99,,,0.00,weatherlink.com 1.10,2013-03-02 03:05:00,
2013-03-01 22:20:00,23.5,21.0,29.90,NNE,29,0.0,-999.0,89,-99.99,,,0.00,weatherlink.com 1.10,2013-03-02 03:20:00,
2013-03-01 22:35:00,23.5,21.0,29.90,NNE,29,0.0,-999.0,89,-99.99,,,0.00,weatherlink.com 1.10,2013-03-02 03:35:00,
2013-03-01 22:50:00,23.5,21.0,29.89,NNE,29,0.0,-999.0,89,-99.99,,,0.00,weatherlink.com 1.10,2013-03-02 03:50:00,
2013-03-01 23:05:00,23.3,21.0,29.89,NNE,29,2.0,-999.0,90,-99.99,,,0.00,weatherlink.com 1.10,2013-03-02 04:05:00,
2013-03-01 23:20:00,23.2,21.0,29.90,NNE,29,0.0,-999.0,91,-99.99,,,0.00,weatherlink.com 1.10,2013-03-02 04:20:00,
2013-03-01 23:35:00,23.2,21.0,29.89,West,261,1.0,-999.0,92,-99.99,,,0.00,weatherlink.com 1.10,2013-03-02 04:35:00,
2013-03-01 23:50:00,23.3,21.0,29.88,West,261,0.0,-999.0,91,-99.99,,,0.00,weatherlink.com 1.10,2013-03-02 04:50:00,